Location: Devore Heights
(34.2372°N, 117.4156°W)
Time: 13:54:22
(UTC+00:00)

S-56A Canister/Altair - All Passes

Search period start: 13 September 2024 00:00
Search period end: 23 September 2024 00:00
Orbit: 637 x 2487 km, 38.9° (Epoch: 12 September)

Date Brightness Start Highest point End Pass type
(mag) Time Alt. Az. Time Alt. Az. Time Alt. Az.
13 Sep - 00:54:19 10° S 00:58:21 24° SE 01:03:27 10° E daylight
13 Sep - 02:55:44 10° WSW 03:01:30 90° SSE 03:10:19 10° ENE visible
13 Sep - 04:59:16 10° W 05:06:36 66° N 05:17:53 10° E visible
13 Sep - 07:03:06 10° WNW 07:12:28 87° NNE 07:26:14 10° ESE visible
13 Sep - 09:07:32 10° WNW 09:18:20 50° SW 09:32:14 10° SE visible
13 Sep - 11:15:47 10° W 11:23:42 18° SW 11:32:16 10° S visible
14 Sep - 00:21:27 10° S 00:24:45 18° SE 00:28:38 10° E daylight
14 Sep - 02:22:12 10° WSW 02:27:36 81° SSE 02:35:39 10° ENE visible
14 Sep - 04:25:37 10° W 04:32:22 64° N 04:42:49 10° E visible
14 Sep - 06:29:19 10° WNW 06:38:01 83° NNE 06:51:09 10° ESE visible
14 Sep - 08:33:27 10° WNW 08:43:47 55° SSW 08:57:39 10° SE visible
14 Sep - 10:40:38 10° W 10:49:13 21° SW 10:58:53 10° S visible
14 Sep - 23:48:56 10° SSE 23:51:09 13° SE 23:53:33 10° ESE daylight
15 Sep - 01:48:43 10° WSW 01:53:47 71° SSE 02:01:04 10° ENE daylight
15 Sep - 03:51:57 10° W 03:58:13 64° N 04:07:50 10° ENE visible
15 Sep - 05:55:35 10° WNW 06:03:39 78° NNE 06:16:02 10° ESE visible
15 Sep - 07:59:28 10° WNW 08:09:16 59° SSW 08:22:58 10° SE visible
15 Sep - 10:05:48 10° W 10:14:45 24° SW 10:25:12 10° S visible
16 Sep - 01:15:15 10° SW 01:20:01 59° SSE 01:26:34 10° ENE daylight
16 Sep - 03:18:20 10° W 03:24:09 64° N 03:32:58 10° ENE visible
16 Sep - 05:21:53 10° WNW 05:29:22 73° NNE 05:40:55 10° E visible
16 Sep - 07:25:35 10° WNW 07:34:48 64° SSW 07:48:10 10° SE visible
16 Sep - 09:31:13 10° W 09:40:15 27° SW 09:51:15 10° S visible
17 Sep - 00:41:49 10° SW 00:46:18 48° SSE 00:52:09 10° ENE daylight
17 Sep - 02:44:42 10° W 02:50:08 66° N 02:58:12 10° ENE visible
17 Sep - 04:48:14 10° WNW 04:55:08 69° NNE 05:05:50 10° E visible
17 Sep - 06:51:46 10° WNW 07:00:24 70° SSW 07:13:18 10° SE visible
17 Sep - 08:56:49 10° W 09:05:47 30° SW 09:17:08 10° SSE night (unlit)
18 Sep - 00:08:25 10° SW 00:12:39 38° SE 00:17:48 10° ENE daylight
18 Sep - 02:11:05 10° W 02:16:12 68° NNW 02:23:34 10° ENE visible
18 Sep - 04:14:35 10° WNW 04:20:59 65° N 04:30:48 10° E visible
18 Sep - 06:17:59 10° WNW 06:26:04 75° SSW 06:38:23 10° ESE visible
18 Sep - 08:22:35 10° W 08:31:21 33° SW 08:42:51 10° SSE night (unlit)
18 Sep - 23:35:04 10° SSW 23:39:00 30° SE 23:43:30 10° E daylight
19 Sep - 01:37:27 10° W 01:42:18 73° NNW 01:49:03 10° ENE daylight
19 Sep - 03:40:57 10° WNW 03:46:53 62° N 03:55:51 10° E visible
19 Sep - 05:44:16 10° WNW 05:51:48 81° SSW 06:03:26 10° ESE visible
19 Sep - 07:48:29 10° W 07:56:56 36° SW 08:08:26 10° SSE night (unlit)
19 Sep - 23:01:46 10° SSW 23:05:20 24° SE 23:09:12 10° E daylight
20 Sep - 01:03:49 10° WSW 01:08:28 80° NNW 01:14:38 10° ENE daylight
20 Sep - 03:07:20 10° WNW 03:12:51 59° N 03:20:59 10° E visible
20 Sep - 05:10:36 10° WNW 05:17:36 87° SSW 05:28:29 10° ESE visible
20 Sep - 07:14:30 10° W 07:22:34 40° SSW 07:33:56 10° SSE visible
20 Sep - 09:23:58 10° WSW 09:27:44 12° SW 09:31:51 10° SSW night (unlit)
20 Sep - 22:28:32 10° S 22:31:40 19° SE 22:34:53 10° E daylight
21 Sep - 00:30:10 10° WSW 00:34:41 89° NNW 00:40:21 10° ENE daylight
21 Sep - 02:33:42 10° WNW 02:38:51 56° N 02:46:14 10° E visible
21 Sep - 04:36:57 10° WNW 04:43:27 86° NNE 04:53:32 10° ESE visible
21 Sep - 06:40:36 10° W 06:48:16 43° SSW 06:59:20 10° SE visible
21 Sep - 08:48:24 10° WSW 08:53:21 14° SW 08:59:01 10° SSW night (unlit)
21 Sep - 21:55:26 10° S 21:57:58 15° SE 22:00:28 10° ESE daylight
21 Sep - 23:56:29 10° WSW 00:00:55 79° SSE 00:06:10 10° ENE daylight
22 Sep - 02:00:03 10° W 02:04:54 55° N 02:11:36 10° ENE visible
22 Sep - 04:03:21 10° WNW 04:09:23 79° NNE 04:18:39 10° ESE visible
22 Sep - 06:06:46 10° WNW 06:14:00 47° SSW 06:24:42 10° SE visible
22 Sep - 08:13:27 10° WSW 08:19:00 16° SW 08:25:35 10° S night (unlit)
22 Sep - 21:22:39 10° SSE 21:24:13 11° SE 21:25:46 10° ESE daylight
22 Sep - 23:22:48 10° WSW 23:27:12 66° SSE 23:32:04 10° ENE daylight
